Regional Weather Roundup
Issued by NWS

Home | Current Version | Previous Version | Text Only | Print | Product List | Glossary Off
Versions: 1 2 3 4 5 6 7 8 9 10 11 12 13 14 15 16 17 18 19 20 21 22 23 24 25 26 27 28 29 30 31 32 33 34 35 36 37 38 39 40 41 42 43 44 45 46 47 48 49

000
ASUS45 KCYS 252110
RWRWY

WYOMING REGIONAL WEATHER ROUNDUP
NATIONAL WEATHER SERVICE CHEYENNE WY
200 PM MST TUE NOV 25 2014

NOTE:  "FAIR" INDICATES FEW OR NO CLOUDS BELOW 12,000 FEET
WITH NO SIGNIFICANT WEATHER AND/OR OBSTRUCTIONS TO VISIBILITY.

WYZ001-252200-
YELLOWSTONE NATIONAL PARK

CITY           SKY/WX    TMP DP  RH WIND       PRES   REMARKS
LK YELLOWSTONE   N/A     28  25  88 VRB3      30.00S
W YELLOWSTONE  NOT AVBL

$$
WYZ002>013-054>058-071-098>099-252200-
NORTHERN WYOMING

CITY           SKY/WX    TMP DP  RH WIND       PRES   REMARKS
JACKSON        LGT SNOW  32  32 100 S14       30.02S WCI  22
CODY           CLOUDY    30  28  93 N13       29.94R WCI  20
GREYBULL       SNOW      31  30  96 NW7       29.95R VSB 1/2 WCI  24
WORLAND        FLURRIES  33  27  78 N6        29.92R WCI  28
SHERIDAN       LGT SNOW  33  31  92 NW21      29.91R FOG     WCI  21
BUFFALO        LGT SNOW  31  28  89 NW23G35   29.89R VSB 3/4 WCI  18
GILLETTE       SNOW      32  30  92 NW20      29.86R VSB 1/2 WCI  20
HULETT           N/A    N/A N/A N/A MISG        N/A
NEWCASTLE      LGT SNOW  30  30 100 NW7       29.82R VSB 3/4 WCI  23

$$
WYZ014>020-022>026-101>103-252200-
CENTRAL WYOMING

CITY           SKY/WX    TMP DP  RH WIND       PRES   REMARKS
BIG PINEY      CLOUDY   N/A N/A N/A E10       30.06S
PINEDALE       LGT SNOW  30  28  93 NW6       30.07S VSB 1   WCI  24
DUBOIS         LGT SNOW  32  28  86 N23G30    29.90S WCI  19
LANDER         PTSUNNY   43  21  41 SE8       29.87F
RIVERTON       SUNNY     44  25  47 W14G29    29.89R
CASPER         PTSUNNY   46  20  35 W24G31    29.84R
DOUGLAS        CLOUDY   N/A N/A N/A N17       29.82R

$$
WYZ021-027>030-104>119-252200-
SOUTHERN WYOMING

CITY           SKY/WX    TMP DP  RH WIND       PRES   REMARKS
EVANSTON       PTSUNNY   32  28  85 SW32G39   30.19F WCI  17
KEMMERER       CLOUDY    32  28  86 W38G47    30.09R WCI  16
FORT BRIDGER   CLOUDY    37  29  72 W25G36    30.18F WCI  26
ROCK SPRINGS   CLOUDY    37  27  67 W26G40    30.07R WCI  25
DIXON          CLOUDY    31  19  60 SW24G30   30.11S WCI  18
RAWLINS        MOSUNNY   32  20  61 W33G44    29.92R WCI  17
SARATOGA       CLOUDY    36  23  60 W36G51    29.98S WCI  21
LARAMIE        PTSUNNY   35  20  54 W43G56    29.85F WCI  20
CHEYENNE       PTSUNNY   41  21  44 W30G43    29.83F
TORRINGTON     CLOUDY    40  28  62 NW20G29   29.83S WCI  30
PINE BLUFFS    CLOUDY    45  21  39 NW28      29.82F

$$


USA.gov is the U.S. government's official web portal to all federal, state and local government web resources and services.